Station History

Weather Underground - logo

Station Historical Data
Daily Summary for August 11, 2017 Units:  English    Metric   Both
« Previous Day
Next Day »
Daily Weekly Monthly Yearly Custom
  High: Low: Average:
Temperature: 99.1 °F 65.4 °F 82.6 °F
Dew Point: 70.7 °F 51.7 °F 63.3 °F
Humidity: 89 % 21 % 57 %
Wind Speed: 6.9 mph 0.0 mph 1.5 mph
Wind Gust: 6.9 mph - -
Wind:- - SW
Pressure: 29.86 in 29.71 in -
Precipitation: 0.00 in    
Historical Graphs
 
 
Tabular Data for August 11, 2017
Time Temperature Dew Point Pressure Wind Wind Speed Wind Gust Humidity Rainfall Rate (Hourly)
00:00 77.9 °F 64.7 °F 29.80 in NW 1.2 mph 1.2 mph 64 % 0.00 in
00:05 78.2 °F 64.1 °F 29.80 in NW 2.3 mph 2.3 mph 62 % 0.00 in
00:10 78.6 °F 64.0 °F 29.80 in WNW 1.2 mph 1.2 mph 61 % 0.00 in
00:15 78.8 °F 64.2 °F 29.80 in NW 1.2 mph 1.2 mph 61 % 0.00 in
00:20 79.0 °F 64.4 °F 29.80 in NW 1.2 mph 1.2 mph 61 % 0.00 in
00:25 79.1 °F 64.5 °F 29.80 in Calm     61 % 0.00 in
00:30 79.4 °F 64.8 °F 29.80 in Calm     61 % 0.00 in
00:35 79.4 °F 64.3 °F 29.80 in Calm     60 % 0.00 in
00:40 79.3 °F 64.2 °F 29.80 in Calm     60 % 0.00 in
00:45 78.7 °F 64.1 °F 29.80 in Calm     61 % 0.00 in
00:50 78.1 °F 64.5 °F 29.80 in Calm     63 % 0.00 in
00:55 78.3 °F 64.7 °F 29.80 in Calm     63 % 0.00 in
01:00 78.1 °F 64.0 °F 29.80 in Calm     62 % 0.00 in
01:05 77.7 °F 64.1 °F 29.80 in Calm     63 % 0.00 in
01:10 77.3 °F 63.7 °F 29.80 in Calm     63 % 0.00 in
01:15 76.8 °F 63.7 °F 29.81 in Calm     64 % 0.00 in
01:20 76.6 °F 64.4 °F 29.81 in Calm     66 % 0.00 in
01:25 76.4 °F 64.6 °F 29.81 in Calm     67 % 0.00 in
01:30 76.4 °F 64.6 °F 29.81 in Calm     67 % 0.00 in
01:35 76.2 °F 64.4 °F 29.81 in Calm     67 % 0.00 in
01:40 75.7 °F 64.8 °F 29.81 in Calm     69 % 0.00 in
01:45 75.0 °F 64.5 °F 29.81 in Calm     70 % 0.00 in
01:50 74.6 °F 64.6 °F 29.81 in Calm     71 % 0.00 in
01:55 74.2 °F 64.6 °F 29.81 in Calm     72 % 0.00 in
02:00 74.0 °F 64.8 °F 29.81 in Calm     73 % 0.00 in
02:05 73.7 °F 64.9 °F 29.81 in Calm     74 % 0.00 in
02:10 73.4 °F 64.6 °F 29.81 in Calm     74 % 0.00 in
02:16 73.1 °F 65.1 °F 29.81 in Calm     76 % 0.00 in
02:21 72.7 °F 64.7 °F 29.81 in Calm     76 % 0.00 in
02:26 72.5 °F 65.2 °F 29.81 in Calm     78 % 0.00 in
02:31 72.3 °F 65.1 °F 29.81 in Calm     78 % 0.00 in
02:36 72.1 °F 64.9 °F 29.81 in Calm     78 % 0.00 in
02:41 72.0 °F 64.8 °F 29.81 in WSW 1.2 mph 1.2 mph 78 % 0.00 in
02:46 72.0 °F 65.1 °F 29.81 in Calm     79 % 0.00 in
02:51 72.0 °F 65.1 °F 29.81 in Calm     79 % 0.00 in
02:56 71.8 °F 64.9 °F 29.82 in Calm     79 % 0.00 in
03:01 71.7 °F 65.2 °F 29.82 in Calm     80 % 0.00 in
03:06 71.7 °F 65.2 °F 29.82 in Calm     80 % 0.00 in
03:11 71.7 °F 65.2 °F 29.82 in Calm     80 % 0.00 in
03:16 71.6 °F 65.1 °F 29.82 in Calm     80 % 0.00 in
03:21 71.3 °F 64.8 °F 29.82 in Calm     80 % 0.00 in
03:26 71.1 °F 65.0 °F 29.82 in Calm     81 % 0.00 in
03:31 70.9 °F 64.8 °F 29.82 in Calm     81 % 0.00 in
03:36 70.6 °F 64.5 °F 29.82 in Calm     81 % 0.00 in
03:41 70.4 °F 64.6 °F 29.82 in Calm     82 % 0.00 in
03:46 70.1 °F 64.3 °F 29.82 in Calm     82 % 0.00 in
03:51 69.9 °F 64.2 °F 29.82 in Calm     82 % 0.00 in
03:56 69.7 °F 64.0 °F 29.83 in Calm     82 % 0.00 in
04:01 69.4 °F 64.0 °F 29.83 in Calm     83 % 0.00 in
04:06 69.1 °F 64.1 °F 29.83 in Calm     84 % 0.00 in
04:11 68.9 °F 63.9 °F 29.83 in Calm     84 % 0.00 in
04:16 68.7 °F 63.7 °F 29.82 in Calm     84 % 0.00 in
04:21 68.6 °F 63.6 °F 29.83 in Calm     84 % 0.00 in
04:26 68.4 °F 63.7 °F 29.83 in Calm     85 % 0.00 in
04:31 68.2 °F 63.5 °F 29.83 in Calm     85 % 0.00 in
04:36 68.1 °F 63.4 °F 29.83 in Calm     85 % 0.00 in
04:41 67.9 °F 63.2 °F 29.83 in Calm     85 % 0.00 in
04:46 67.6 °F 62.6 °F 29.83 in Calm     84 % 0.00 in
04:51 67.4 °F 62.4 °F 29.83 in Calm     84 % 0.00 in
04:56 67.2 °F 62.2 °F 29.82 in Calm     84 % 0.00 in
05:01 66.9 °F 62.2 °F 29.83 in Calm     85 % 0.00 in
05:06 66.7 °F 62.0 °F 29.83 in Calm     85 % 0.00 in
05:11 66.7 °F 62.4 °F 29.83 in Calm     86 % 0.00 in
05:16 66.6 °F 62.3 °F 29.83 in Calm     86 % 0.00 in
05:21 66.4 °F 62.1 °F 29.83 in Calm     86 % 0.00 in
05:26 66.2 °F 62.2 °F 29.83 in Calm     87 % 0.00 in
05:32 66.2 °F 62.2 °F 29.83 in Calm     87 % 0.00 in
05:36 66.3 °F 62.6 °F 29.83 in Calm     88 % 0.00 in
05:42 66.1 °F 62.1 °F 29.83 in Calm     87 % 0.00 in
05:47 66.0 °F 62.0 °F 29.83 in Calm     87 % 0.00 in
05:52 66.0 °F 62.0 °F 29.84 in Calm     87 % 0.00 in
05:57 66.0 °F 62.0 °F 29.84 in Calm     87 % 0.00 in
06:02 65.9 °F 61.6 °F 29.84 in Calm     86 % 0.00 in
06:07 65.8 °F 61.8 °F 29.84 in Calm     87 % 0.00 in
06:12 65.7 °F 61.7 °F 29.84 in Calm     87 % 0.00 in
06:17 65.6 °F 61.6 °F 29.85 in Calm     87 % 0.00 in
06:22 65.5 °F 61.5 °F 29.85 in Calm     87 % 0.00 in
06:27 65.4 °F 61.4 °F 29.85 in Calm     87 % 0.00 in
06:32 65.4 °F 61.8 °F 29.85 in Calm     88 % 0.00 in
06:37 65.5 °F 62.2 °F 29.85 in Calm     89 % 0.00 in
06:42 65.8 °F 62.5 °F 29.85 in SSE 1.2 mph 1.2 mph 89 % 0.00 in
06:47 65.9 °F 62.2 °F 29.85 in SSE 1.2 mph 1.2 mph 88 % 0.00 in
06:52 66.1 °F 62.4 °F 29.85 in SSE 1.2 mph 1.2 mph 88 % 0.00 in
06:57 66.3 °F 62.3 °F 29.85 in Calm     87 % 0.00 in
07:02 66.5 °F 62.8 °F 29.85 in Calm     88 % 0.00 in
07:07 66.7 °F 62.7 °F 29.86 in Calm     87 % 0.00 in
07:12 67.0 °F 62.7 °F 29.85 in SE 2.3 mph 2.3 mph 86 % 0.00 in
07:17 67.4 °F 62.7 °F 29.86 in ESE 1.2 mph   85 % 0.00 in
07:22 67.8 °F 62.8 °F 29.86 in ESE 1.2 mph 1.2 mph 84 % 0.00 in
07:27 68.6 °F 63.2 °F 29.86 in ENE 2.3 mph 2.3 mph 83 % 0.00 in
07:32 69.4 °F 63.3 °F 29.86 in East 2.3 mph 2.3 mph 81 % 0.00 in
07:37 70.2 °F 64.1 °F 29.86 in SSE 2.3 mph 2.3 mph 81 % 0.00 in
07:42 70.8 °F 64.3 °F 29.86 in ESE 3.5 mph 3.5 mph 80 % 0.00 in
07:47 71.4 °F 64.9 °F 29.86 in ESE 3.5 mph 3.5 mph 80 % 0.00 in
07:52 72.1 °F 65.2 °F 29.86 in SE 2.3 mph 2.3 mph 79 % 0.00 in
07:57 72.6 °F 65.3 °F 29.86 in South 2.0 mph 2.0 mph 78 % 0.00 in
08:02 73.3 °F 65.3 °F 29.86 in East 3.5 mph 3.5 mph 76 % 0.00 in
08:07 73.8 °F 65.8 °F 29.86 in SE 2.3 mph 2.3 mph 76 % 0.00 in
08:12 74.3 °F 65.9 °F 29.86 in ESE 3.5 mph 3.5 mph 75 % 0.00 in
08:17 74.7 °F 66.2 °F 29.86 in South 3.5 mph 3.5 mph 75 % 0.00 in
08:22 75.1 °F 66.6 °F 29.86 in ENE 3.5 mph 3.5 mph 75 % 0.00 in
08:27 75.6 °F 66.7 °F 29.86 in SSE 3.5 mph 3.5 mph 74 % 0.00 in
08:32 76.7 °F 67.4 °F 29.86 in South 1.2 mph 1.2 mph 73 % 0.00 in
08:37 77.3 °F 66.7 °F 29.86 in East 3.5 mph 3.5 mph 70 % 0.00 in
08:42 77.5 °F 67.4 °F 29.86 in East 2.3 mph 2.3 mph 71 % 0.00 in
08:47 77.7 °F 67.5 °F 29.86 in NE 2.3 mph   71 % 0.00 in
08:52 78.3 °F 67.7 °F 29.86 in East 5.0 mph 5.0 mph 70 % 0.00 in
08:57 78.4 °F 67.4 °F 29.86 in SSE 3.5 mph 3.5 mph 69 % 0.00 in
09:02 78.8 °F 67.8 °F 29.86 in East 3.5 mph 3.5 mph 69 % 0.00 in
09:07 79.4 °F 67.5 °F 29.86 in South 3.5 mph 3.5 mph 67 % 0.00 in
09:13 80.0 °F 67.6 °F 29.86 in SE 4.6 mph 4.6 mph 66 % 0.00 in
09:18 80.3 °F 67.5 °F 29.86 in SE 3.5 mph 3.5 mph 65 % 0.00 in
09:23 80.7 °F 67.4 °F 29.85 in SSW 4.6 mph 4.6 mph 64 % 0.00 in
09:28 81.2 °F 67.4 °F 29.85 in SSE 1.2 mph 1.2 mph 63 % 0.00 in
09:33 81.7 °F 67.4 °F 29.86 in SSE 3.5 mph 3.5 mph 62 % 0.00 in
09:38 82.1 °F 67.8 °F 29.86 in South 3.5 mph 3.5 mph 62 % 0.00 in
09:43 82.1 °F 67.3 °F 29.86 in SE 3.5 mph 3.5 mph 61 % 0.00 in
09:48 82.4 °F 68.5 °F 29.86 in SE 1.2 mph   63 % 0.00 in
09:53 82.9 °F 68.1 °F 29.85 in SE 4.6 mph 4.6 mph 61 % 0.00 in
09:58 83.1 °F 67.3 °F 29.86 in South 4.0 mph 4.0 mph 59 % 0.00 in
10:03 83.5 °F 67.2 °F 29.86 in SSW 3.5 mph 3.5 mph 58 % 0.00 in
10:08 83.5 °F 67.2 °F 29.86 in SSE 3.5 mph 3.5 mph 58 % 0.00 in
10:13 83.6 °F 67.8 °F 29.85 in ESE 3.5 mph 3.5 mph 59 % 0.00 in
10:18 84.2 °F 67.3 °F 29.85 in North 2.3 mph 2.3 mph 57 % 0.00 in
10:23 84.5 °F 67.6 °F 29.85 in East 4.6 mph 4.6 mph 57 % 0.00 in
10:28 84.8 °F 67.4 °F 29.85 in East 4.6 mph 4.6 mph 56 % 0.00 in
10:33 85.0 °F 67.5 °F 29.85 in SE 3.5 mph 3.5 mph 56 % 0.00 in
10:38 85.3 °F 68.3 °F 29.85 in ESE 3.5 mph 3.5 mph 57 % 0.00 in
10:43 85.4 °F 68.9 °F 29.85 in NNW 3.0 mph 3.0 mph 58 % 0.00 in
10:48 85.7 °F 69.2 °F 29.85 in SE 1.2 mph 1.2 mph 58 % 0.00 in
10:53 86.4 °F 68.8 °F 29.85 in SE 1.2 mph   56 % 0.00 in
10:58 86.5 °F 68.4 °F 29.85 in SSE 3.5 mph 3.5 mph 55 % 0.00 in
11:03 86.5 °F 67.9 °F 29.85 in SW 3.5 mph   54 % 0.00 in
11:08 86.8 °F 68.2 °F 29.85 in NW 3.5 mph 3.5 mph 54 % 0.00 in
11:13 87.0 °F 68.9 °F 29.85 in SSE 3.5 mph 3.5 mph 55 % 0.00 in
11:18 87.4 °F 68.7 °F 29.85 in ESE 2.3 mph 2.3 mph 54 % 0.00 in
11:23 87.9 °F 68.1 °F 29.84 in West 3.5 mph 3.5 mph 52 % 0.00 in
11:28 88.2 °F 68.4 °F 29.84 in NW 2.3 mph 2.3 mph 52 % 0.00 in
11:33 88.4 °F 69.1 °F 29.84 in SSE 1.2 mph 1.2 mph 53 % 0.00 in
11:38 89.0 °F 69.1 °F 29.84 in NW 2.3 mph 2.3 mph 52 % 0.00 in
11:43 89.3 °F 68.2 °F 29.84 in NW 2.3 mph 2.3 mph 50 % 0.00 in
11:48 89.1 °F 68.6 °F 29.83 in ENE 2.0 mph 2.0 mph 51 % 0.00 in
11:53 89.6 °F 69.6 °F 29.83 in NE 3.5 mph 3.5 mph 52 % 0.00 in
11:58 90.0 °F 68.9 °F 29.83 in North 2.0 mph 2.0 mph 50 % 0.00 in
12:03 90.5 °F 69.3 °F 29.83 in WNW 3.5 mph 3.5 mph 50 % 0.00 in
12:08 90.2 °F 69.6 °F 29.83 in WNW 3.5 mph 3.5 mph 51 % 0.00 in
12:13 90.2 °F 69.0 °F 29.82 in ENE 3.5 mph 3.5 mph 50 % 0.00 in
12:18 90.8 °F 70.7 °F 29.82 in SE 1.2 mph   52 % 0.00 in
12:23 91.2 °F 69.4 °F 29.82 in NW 2.3 mph 2.3 mph 49 % 0.00 in
12:28 91.3 °F 69.5 °F 29.82 in North 2.3 mph 2.3 mph 49 % 0.00 in
12:33 91.3 °F 68.2 °F 29.82 in North 1.2 mph 1.2 mph 47 % 0.00 in
12:38 91.5 °F 67.8 °F 29.82 in NW 2.3 mph 2.3 mph 46 % 0.00 in
12:43 91.8 °F 68.1 °F 29.82 in SSW 1.2 mph 1.4 mph 46 % 0.00 in
12:48 92.0 °F 68.3 °F 29.82 in NE 1.2 mph 1.2 mph 46 % 0.00 in
12:53 92.5 °F 69.3 °F 29.82 in NNW 2.3 mph 2.3 mph 47 % 0.00 in
12:58 92.9 °F 68.4 °F 29.81 in ESE 2.3 mph 2.3 mph 45 % 0.00 in
13:03 93.3 °F 67.5 °F 29.81 in NW 1.2 mph 1.2 mph 43 % 0.00 in
13:08 93.8 °F 68.6 °F 29.81 in ESE 1.2 mph 1.2 mph 44 % 0.00 in
13:14 94.0 °F 68.1 °F 29.81 in NNE 1.2 mph   43 % 0.00 in
13:19 94.6 °F 68.0 °F 29.81 in SSW 2.3 mph 2.3 mph 42 % 0.00 in
13:24 94.5 °F 67.9 °F 29.81 in WNW 2.0 mph 2.0 mph 42 % 0.00 in
13:29 94.3 °F 67.0 °F 29.81 in NW 2.3 mph 2.3 mph 41 % 0.00 in
13:34 94.0 °F 66.7 °F 29.81 in NW 2.0 mph 2.0 mph 41 % 0.00 in
13:39 94.0 °F 66.0 °F 29.80 in NW 2.3 mph 2.3 mph 40 % 0.00 in
13:44 94.8 °F 66.7 °F 29.80 in WSW 2.0 mph 2.0 mph 40 % 0.00 in
13:49 95.5 °F 65.9 °F 29.80 in NW 1.2 mph 1.2 mph 38 % 0.00 in
13:54 96.0 °F 67.0 °F 29.80 in WNW 1.2 mph 1.5 mph 39 % 0.00 in
13:58 96.3 °F 67.3 °F 29.80 in SSE 2.3 mph 2.3 mph 39 % 0.00 in
14:03 97.0 °F 66.4 °F 29.80 in WNW 1.2 mph 1.2 mph 37 % 0.00 in
14:08 96.8 °F 67.8 °F 29.79 in South 2.0 mph 2.0 mph 39 % 0.00 in
14:14 97.1 °F 65.7 °F 29.79 in NE 1.2 mph 1.9 mph 36 % 0.00 in
14:19 97.5 °F 65.2 °F 29.79 in NW 1.2 mph 1.2 mph 35 % 0.00 in
14:24 96.8 °F 67.0 °F 29.79 in NW 2.3 mph 2.3 mph 38 % 0.00 in
14:29 96.8 °F 67.0 °F 29.78 in NW 2.3 mph 2.3 mph 38 % 0.00 in
14:34 97.5 °F 67.6 °F 29.78 in NNE 2.3 mph 2.3 mph 38 % 0.00 in
14:39 98.0 °F 67.3 °F 29.78 in NE 2.3 mph 2.3 mph 37 % 0.00 in
14:44 98.4 °F 66.9 °F 29.78 in NW 1.2 mph   36 % 0.00 in
14:49 98.7 °F 65.5 °F 29.77 in SW 3.5 mph 3.5 mph 34 % 0.00 in
14:54 98.0 °F 64.9 °F 29.77 in NW 3.5 mph 3.5 mph 34 % 0.00 in
14:59 97.9 °F 62.1 °F 29.77 in NNW 3.5 mph 3.5 mph 31 % 0.00 in
15:04 97.8 °F 60.2 °F 29.77 in North 2.3 mph 2.3 mph 29 % 0.00 in
15:09 97.9 °F 61.2 °F 29.77 in WNW 6.0 mph 6.0 mph 30 % 0.00 in
15:14 97.6 °F 56.9 °F 29.77 in WNW 4.0 mph 4.0 mph 26 % 0.00 in
15:19 97.7 °F 58.1 °F 29.76 in NW 2.3 mph 2.3 mph 27 % 0.00 in
15:24 98.2 °F 57.4 °F 29.76 in WNW 4.6 mph 4.6 mph 26 % 0.00 in
15:29 98.0 °F 57.3 °F 29.76 in NW 3.5 mph 3.5 mph 26 % 0.00 in
15:34 98.0 °F 57.3 °F 29.76 in NW 3.5 mph 3.5 mph 26 % 0.00 in
15:39 98.0 °F 58.3 °F 29.76 in WNW 3.5 mph 3.5 mph 27 % 0.00 in
15:44 98.1 °F 58.4 °F 29.76 in NW 4.6 mph 4.6 mph 27 % 0.00 in
15:49 98.2 °F 56.4 °F 29.76 in West 5.8 mph 5.8 mph 25 % 0.00 in
15:54 98.3 °F 55.3 °F 29.76 in NW 4.6 mph 4.6 mph 24 % 0.00 in
15:59 98.3 °F 51.7 °F 29.76 in NW 5.0 mph 5.0 mph 21 % 0.00 in
16:04 98.4 °F 53.0 °F 29.75 in WNW 6.9 mph 6.9 mph 22 % 0.00 in
16:09 98.4 °F 54.2 °F 29.75 in NW 3.5 mph 3.5 mph 23 % 0.00 in
16:14 98.5 °F 56.6 °F 29.75 in WNW 3.5 mph 3.5 mph 25 % 0.00 in
16:19 98.4 °F 58.7 °F 29.75 in NW 3.5 mph 3.5 mph 27 % 0.00 in
16:24 98.4 °F 57.6 °F 29.75 in NW 4.0 mph 4.0 mph 26 % 0.00 in
16:29 98.2 °F 57.4 °F 29.74 in WNW 3.5 mph 3.5 mph 26 % 0.00 in
16:34 98.4 °F 60.7 °F 29.74 in NW 3.5 mph 3.5 mph 29 % 0.00 in
16:39 98.8 °F 59.0 °F 29.74 in NW 4.6 mph 4.6 mph 27 % 0.00 in
16:44 98.6 °F 60.8 °F 29.74 in NE 3.5 mph 3.5 mph 29 % 0.00 in
16:49 98.8 °F 58.0 °F 29.74 in NW 3.5 mph 3.5 mph 26 % 0.00 in
16:55 99.0 °F 59.2 °F 29.74 in NNE 4.0 mph 4.0 mph 27 % 0.00 in
17:00 99.0 °F 59.2 °F 29.74 in North 3.5 mph 3.5 mph 27 % 0.00 in
17:05 99.0 °F 59.2 °F 29.73 in NW 3.5 mph 3.5 mph 27 % 0.00 in
17:10 99.1 °F 59.3 °F 29.73 in WNW 3.5 mph 3.5 mph 27 % 0.00 in
17:15 98.8 °F 60.0 °F 29.73 in NW 3.5 mph 3.5 mph 28 % 0.00 in
17:20 98.7 °F 58.9 °F 29.73 in NW 3.5 mph 3.5 mph 27 % 0.00 in
17:25 98.5 °F 58.8 °F 29.73 in NNW 2.3 mph 2.3 mph 27 % 0.00 in
17:30 98.7 °F 59.9 °F 29.73 in NW 3.5 mph 3.5 mph 28 % 0.00 in
17:35 98.5 °F 60.8 °F 29.72 in West 2.3 mph 2.3 mph 29 % 0.00 in
17:40 98.6 °F 59.9 °F 29.72 in WSW 2.3 mph 2.3 mph 28 % 0.00 in
17:45 98.5 °F 59.8 °F 29.72 in NE 4.0 mph 4.0 mph 28 % 0.00 in
17:50 98.3 °F 58.6 °F 29.72 in NW 5.0 mph 5.0 mph 27 % 0.00 in
17:55 98.1 °F 59.4 °F 29.72 in NNW 4.6 mph 4.6 mph 28 % 0.00 in
18:00 97.9 °F 57.2 °F 29.72 in NW 3.5 mph 3.5 mph 26 % 0.00 in
18:05 97.7 °F 58.1 °F 29.72 in NW 3.5 mph 3.5 mph 27 % 0.00 in
18:10 97.7 °F 58.1 °F 29.72 in NW 3.5 mph 3.5 mph 27 % 0.00 in
18:15 97.6 °F 58.0 °F 29.71 in WNW 1.2 mph 1.2 mph 27 % 0.00 in
18:20 97.7 °F 57.0 °F 29.72 in NW 3.5 mph 3.5 mph 26 % 0.00 in
18:25 97.6 °F 56.9 °F 29.72 in WNW 3.5 mph 3.5 mph 26 % 0.00 in
18:30 97.5 °F 56.9 °F 29.71 in NW 1.2 mph 1.2 mph 26 % 0.00 in
18:35 97.2 °F 56.6 °F 29.71 in NW 3.5 mph 3.5 mph 26 % 0.00 in
18:40 96.9 °F 55.3 °F 29.71 in NW 2.3 mph 2.3 mph 25 % 0.00 in
18:45 96.6 °F 55.0 °F 29.71 in WNW 3.5 mph 3.5 mph 25 % 0.00 in
18:50 95.8 °F 55.4 °F 29.71 in NW 1.2 mph 1.2 mph 26 % 0.00 in
18:55 95.2 °F 57.0 °F 29.71 in WNW 1.2 mph 1.2 mph 28 % 0.00 in
19:00 94.6 °F 56.4 °F 29.71 in NW 1.2 mph 1.2 mph 28 % 0.00 in
19:05 94.1 °F 57.0 °F 29.71 in Calm     29 % 0.00 in
19:07 93.9 °F 55.8 °F 29.71 in NW 1.2 mph 1.2 mph 28 % 0.00 in
19:12 93.4 °F 55.4 °F 29.71 in WNW 1.2 mph 1.2 mph 28 % 0.00 in
19:17 93.0 °F 56.0 °F 29.71 in Calm     29 % 0.00 in
19:22 92.5 °F 56.6 °F 29.72 in Calm     30 % 0.00 in
19:27 91.9 °F 56.9 °F 29.72 in Calm     31 % 0.00 in
19:32 91.3 °F 56.4 °F 29.71 in Calm     31 % 0.00 in
19:37 90.9 °F 57.8 °F 29.72 in Calm     33 % 0.00 in
19:42 90.3 °F 57.3 °F 29.72 in Calm     33 % 0.00 in
19:47 89.8 °F 59.3 °F 29.72 in Calm     36 % 0.00 in
19:53 89.1 °F 60.2 °F 29.72 in Calm     38 % 0.00 in
19:58 88.3 °F 59.5 °F 29.72 in Calm     38 % 0.00 in
20:03 87.4 °F 60.1 °F 29.72 in Calm     40 % 0.00 in
20:08 86.7 °F 60.9 °F 29.72 in Calm     42 % 0.00 in
20:13 86.0 °F 59.6 °F 29.72 in Calm     41 % 0.00 in
20:18 85.4 °F 59.7 °F 29.72 in Calm     42 % 0.00 in
20:23 84.9 °F 59.9 °F 29.73 in Calm     43 % 0.00 in
20:28 84.4 °F 62.6 °F 29.73 in Calm     48 % 0.00 in
20:33 83.9 °F 63.3 °F 29.73 in Calm     50 % 0.00 in
20:38 83.4 °F 62.8 °F 29.73 in Calm     50 % 0.00 in
20:43 83.0 °F 61.9 °F 29.73 in Calm     49 % 0.00 in
20:48 82.7 °F 61.6 °F 29.73 in Calm     49 % 0.00 in
20:53 82.4 °F 62.5 °F 29.74 in Calm     51 % 0.00 in
20:58 82.1 °F 62.2 °F 29.74 in Calm     51 % 0.00 in
21:03 81.7 °F 62.4 °F 29.74 in Calm     52 % 0.00 in
21:08 81.3 °F 62.5 °F 29.74 in Calm     53 % 0.00 in
21:13 81.0 °F 62.3 °F 29.74 in Calm     53 % 0.00 in
21:18 80.7 °F 62.5 °F 29.74 in Calm     54 % 0.00 in
21:23 80.4 °F 63.8 °F 29.74 in Calm     57 % 0.00 in
21:28 80.1 °F 63.5 °F 29.74 in Calm     57 % 0.00 in
21:33 80.0 °F 63.4 °F 29.74 in Calm     57 % 0.00 in
21:38 79.8 °F 62.7 °F 29.75 in Calm     56 % 0.00 in
21:43 79.6 °F 63.0 °F 29.75 in Calm     57 % 0.00 in
21:48 79.3 °F 63.7 °F 29.75 in Calm     59 % 0.00 in
21:53 79.0 °F 62.0 °F 29.75 in Calm     56 % 0.00 in
21:58 79.1 °F 61.5 °F 29.75 in Calm     55 % 0.00 in
22:03 79.9 °F 62.3 °F 29.75 in Calm     55 % 0.00 in
22:08 79.9 °F 61.8 °F 29.75 in Calm     54 % 0.00 in
22:13 79.5 °F 61.9 °F 29.74 in Calm     55 % 0.00 in
22:18 79.0 °F 63.0 °F 29.75 in Calm     58 % 0.00 in
22:23 78.3 °F 62.3 °F 29.75 in Calm     58 % 0.00 in
22:28 77.8 °F 61.8 °F 29.75 in Calm     58 % 0.00 in
22:33 77.4 °F 61.9 °F 29.75 in Calm     59 % 0.00 in
22:38 76.9 °F 61.5 °F 29.75 in Calm     59 % 0.00 in
22:43 76.6 °F 61.7 °F 29.75 in Calm     60 % 0.00 in
22:48 76.2 °F 62.2 °F 29.75 in Calm     62 % 0.00 in
22:53 75.9 °F 62.8 °F 29.75 in Calm     64 % 0.00 in
22:58 75.6 °F 62.6 °F 29.75 in Calm     64 % 0.00 in
23:03 75.4 °F 63.2 °F 29.76 in Calm     66 % 0.00 in
23:08 75.2 °F 63.1 °F 29.76 in Calm     66 % 0.00 in
23:13 75.0 °F 62.0 °F 29.76 in Calm     64 % 0.00 in
23:18 74.9 °F 61.5 °F 29.76 in Calm     63 % 0.00 in
23:23 74.7 °F 61.3 °F 29.76 in Calm     63 % 0.00 in
23:28 74.5 °F 60.6 °F 29.76 in Calm     62 % 0.00 in
23:34 74.6 °F 62.1 °F 29.76 in Calm     65 % 0.00 in
23:39 74.5 °F 62.0 °F 29.76 in Calm     65 % 0.00 in
23:44 74.3 °F 62.6 °F 29.76 in Calm     67 % 0.00 in
23:49 74.0 °F 63.2 °F 29.76 in Calm     69 % 0.00 in
23:54 73.7 °F 63.3 °F 29.76 in Calm     70 % 0.00 in
23:59 73.4 °F 63.4 °F 29.76 in Calm     71 % 0.00 in
Park Place, Exeter, Tulare County, California, USA
Compliments of Weather Underground - 2.75 mb